Simultaneous Nadir Overpasses (SNOs) Predictions

Prediction of SNOs between METOP-B and TERRA Satellite Orbit:

Table of predicted SNOs for the next 14.0 days since TLE Epoch: 6/5/2021
Index Date (METOP-B) Time (METOP-B) Lat,Lon (METOP-B) SZA (METOP-B ) Date (TERRA) Time (TERRA) Lat,Lon (TERRA) SZA (TERRA ) Distance(km) Time Diff (sec)
1 06/05/2021 10:57:37 -81.26,-119.00 118.56 06/05/2021 10:58:00 -81.26,-119.09 118.56 1.53 23
2 06/05/2021 11:48:17 81.27, 48.52 61.46 06/05/2021 11:47:26 81.27, 48.65 61.45 2.30 51
3 06/08/2021 06:32:01 -81.26, -52.64 118.86 06/08/2021 06:32:13 -81.27, -52.53 118.83 2.08 12
4 06/08/2021 07:22:40 81.27, 115.22 61.21 06/08/2021 07:21:39 81.27, 115.18 61.18 0.78 61
5 06/11/2021 02:06:25 -81.26, 13.70 119.10 06/11/2021 02:06:27 -81.26, 13.65 119.11 0.94 2
6 06/11/2021 02:57:04 81.27,-178.48 60.96 06/11/2021 02:55:52 81.28,-178.29 60.96 3.36 72
7 06/13/2021 20:50:07 81.26, -87.49 60.69 06/13/2021 20:51:12 81.26, -87.43 60.73 1.26 65
8 06/13/2021 21:40:48 -81.26, 80.02 119.29 06/13/2021 21:40:39 -81.26, 80.21 119.27 3.27 9
9 06/16/2021 16:24:31 81.25, -21.21 60.54 06/16/2021 16:25:26 81.25, -21.27 60.56 1.19 55



Historial Predications of SNOs between METOP-B and TERRA
